Voltar ao catálogo

CZ-6A DEB

AtivoPO
NORAD 61455·DEBRIS·🇨🇳 China

Lançado Aug 6, 2024 de Taiyuan Satellite Launch Center

Loading…

Próximas Passagens (próximas 24 horas)

TLE

AtualizadoSource: Space-Track

Época: Sep 14, 2026, 07:03 UTC

1 61455U 24140ZM  26257.29389977  .00013860  00000-0  78151-3 0  9991
2 61455  90.2772  19.0422 0168468 138.3454 223.0758 15.01724980111400

Acompanhe CZ-6A DEB em tempo real com AllMySat

Download on the App Store